Regional Weather Roundup
Issued by NWS

Home | Current Version | Previous Version | Text Only | Print | Product List | Glossary On
Versions: 1 2 3 4 5 6 7 8 9 10 11 12 13 14 15 16 17 18 19 20 21 22 23 24 25 26 27 28 29 30 31 32 33 34 35 36 37 38 39 40 41 42 43 44 45 46 47 48 49 50
000
ASUS43 KBIS 211720
RWRND

NORTH DAKOTA REGIONAL WEATHER ROUNDUP
NATIONAL WEATHER SERVICE BISMARCK ND
1200 PM CDT TUE OCT 21 2014

NOTE: "FAIR" INDICATES FEW OR NO CLOUDS BELOW 12,000 FEET WITH NO
SIGNIFICANT WEATHER AND/OR OBSTRUCTIONS TO VISIBILITY.


NDZ001>003-009>011-017-211800-
NORTHWEST NORTH DAKOTA

CITY           SKY/WX    TMP DP  RH WIND       PRES   REMARKS
WILLISTON      SUNNY     58  40  51 SE6       29.69F
MINOT          SUNNY     61  38  42 SE13      29.75F
MINOT AFB      SUNNY     61  41  48 S13       29.74F
$$

NDZ018>021-031>035-040>046-211800-
SOUTHWEST NORTH DAKOTA

CITY           SKY/WX    TMP DP  RH WIND       PRES   REMARKS
BISMARCK       SUNNY     64  41  42 SE15      29.78F
DICKINSON      SUNNY     62  44  51 S12       29.70F
GARRISON         N/A     60  39  45 SE10      29.74F
HETTINGER ARPT SUNNY     62  43  49 SE8       29.75F
$$

NDZ004>008-012>016-024-026-027-054-211800-
NORTHEAST NORTH DAKOTA

CITY           SKY/WX    TMP DP  RH WIND       PRES   REMARKS
GRAND FORKS    SUNNY     55  42  61 S22G29    29.97F
GRND FRKS AFB  SUNNY     55  43  64 SE18G24   29.95F
DEVILS LAKE    SUNNY     61  39  44 S21G26    29.84F
$$

NDZ022-023-025-028>030-036>039-047>053-211800-
SOUTHEAST NORTH DAKOTA

CITY           SKY/WX    TMP DP  RH WIND       PRES   REMARKS
FARGO          SUNNY     59  42  53 SE28G35   29.98F
JAMESTOWN      SUNNY     61  40  45 S22G31    29.86F
$$




USA.gov is the U.S. government's official web portal to all federal, state and local government web resources and services.